Карточка аэропорта UNKL

Внимание!
Информация на этой странице в стадии наполнения.
Если вы не увидели какой-то информации, или заметили неточность - пожалуйста сообщите нам!
Спасибо!
Команда RU-STAFF
Название аэропортаЕмельяново
Название аэропорта (англ.)Yemelyanovo
Превышение942 ft. (287.1 m.)
Координаты56°10.386', 92°29.598'
Высота перехода7500ft
Эшелон переходаFL090
Коды ответчика5320-5377
Зона ОрВДКрасноярск РПИ (UNKL)
Данные METARUNKL 290700Z 20007G13MPS 160V230 CAVOK 14/01 Q1008 R29/CLRD65 NOSIG RMK QFE730
Проноз погоды (TAF)UNKL 290445Z 2906/3006 20008G18MPS 9999 BKN016CB TEMPO 2906/2910 25011G25MPS BECMG 2910/2913 25005G12MPS BECMG 2915/2918 31003G08MPS BECMG 3000/3003 26005G12MPS
NOTAMshow/hide NOTAM
AWOS   TABLE

Информация о ВПП

ВПП Длина ВПП (м.) Покрытие Курс ВПП Частота ILS
113700Асфальтобетон109110.5
293700Асфальтобетон289111.7

Диспетчерские позиции

Позывной Наименование органа УВД Частота
UNKL_APPКрасноярск-Подход127.7
UNKL_GNDКрасноярск-Руление121.9
UNKL_R_APPКрасноярск-Круг122.0
UNKL_TWRКрасноярск-Вышка118.3



Спутниковое изображение